Latest Coastal Weather Observations for Adele Island

IDW60701

Issued at 6:42 pm WST Monday 22 December 2014 (issued every 10 minutes, with the page automatically refreshed every 10 minutes)

About coastal observations | Map of coastal stations | Coastal observations for WA | Marine services | Other Formats
Station Details ID: 200735 Name: ADELE ISLAND Lat: -15.51 Lon: 123.16 Height: 4.6 m
Data from the previous 72 hours. | See also: Recent months for locations in Western Australia
Date/Time
WST
Temp

°C
Wind Pressure Rain
since 9am
mm
Weather Cloud Vis
km
Sea
Height
m
Swell
Dir
 
Speed
knots
Gust
knots
hPa Trend Height
m
Period
s
Dir
22/06:30pm 29.3 WSW 7 8 1006.6 - - - - - - - - -
22/06:00pm 29.5 WSW 6 7 1006.1 - - - - - - - - -
22/05:30pm 30.0 WSW 6 7 1005.8 - - - - - - - - -
22/05:00pm 30.5 WSW 6 8 1005.4 - - - - - - - - -
22/04:30pm 30.6 WNW 5 7 1005.5 - - - - - - - - -
22/04:00pm 31.3 NW 4 6 1005.5 - - - - - - - - -
22/03:30pm 31.0 WSW 6 9 1005.7 - - - - - - - - -
22/03:00pm 30.4 WSW 6 8 1006.0 - - - - - - - - -
22/02:30pm 31.1 SW 7 10 1006.1 - - - - - - - - -
22/02:00pm 30.7 SSW 9 11 1006.5 - - - - - - - - -
22/01:30pm 31.1 SW 9 13 1006.8 - - - - - - - - -
22/01:00pm 30.8 SSW 10 14 1007.5 - - - - - - - - -
22/12:30pm 31.0 SSW 10 14 1007.8 - - - - - - - - -
22/12:00pm 30.4 SW 11 14 1008.1 - - - - - - - - -
22/11:30am 30.1 SW 10 13 1008.4 - - - - - - - - -
22/11:00am 30.1 SW 11 13 1008.9 - - - - - - - - -
22/10:30am 30.8 SSW 9 11 1008.9 - - - - - - - - -
22/10:00am 30.9 SSW 11 14 1009.4 - - - - - - - - -
22/09:30am 30.6 SSW 13 17 1009.8 - - - - - - - - -
22/09:00am 31.0 S 13 17 1009.7 - - - - - - - - -
22/08:30am 31.1 SSE 14 17 1009.2 - - - - - - - - -
22/08:00am 30.7 S 12 15 1008.8 - - - - - - - - -
22/07:30am 30.5 S 12 15 1008.6 - - - - - - - - -
22/07:00am 30.5 S 10 13 1008.4 - - - - - - - - -
22/06:30am 29.9 S 11 13 1008.2 - - - - - - - - -
22/06:00am 29.3 SSE 10 13 1007.7 - - - - - - - - -
22/05:30am 29.0 SSE 9 12 1007.5 - - - - - - - - -
22/05:00am 28.8 S 8 9 1007.1 - - - - - - - - -
22/04:30am 28.9 S 10 13 1006.9 - - - - - - - - -
22/04:00am 29.0 S 9 12 1006.8 - - - - - - - - -
22/03:30am 28.9 SSW 8 10 1006.6 - - - - - - - - -
22/03:00am 28.8 SSW 8 10 1006.4 - - - - - - - - -
22/02:30am 28.9 SSW 9 11 1006.3 - - - - - - - - -
22/02:00am 29.0 SW 8 10 1006.3 - - - - - - - - -
22/01:30am 29.0 SW 8 10 1006.3 - - - - - - - - -
22/01:00am 29.1 SW 9 11 1006.4 - - - - - - - - -
22/12:30am 29.0 SW 9 12 1006.6 - - - - - - - - -
22/12:00am 29.1 WSW 8 10 1006.7 - - - - - - - - -
 
Date/Time
WST
Temp

°C
Wind Pressure Rain
since 9am
mm
Weather Cloud Vis
km
Sea
Height
m
Swell
Dir
 
Speed
knots
Gust
knots
hPa Trend Height
m
Period
s
Dir
21/11:30pm 29.2 WSW 8 10 1006.9 - - - - - - - - -
21/11:00pm 29.2 WSW 7 10 1007.2 - - - - - - - - -
21/10:30pm 29.2 WNW 7 8 1007.3 - - - - - - - - -
21/10:00pm 29.3 W 6 8 1007.5 - - - - - - - - -
21/09:30pm 29.2 WNW 6 8 1007.6 - - - - - - - - -
21/09:00pm 29.1 WNW 6 7 1007.7 - - - - - - - - -
21/08:30pm 29.0 W 6 7 1007.4 - - - - - - - - -
21/08:00pm 29.0 W 6 7 1007.0 - - - - - - - - -
21/07:30pm 29.2 WNW 6 7 1006.8 - - - - - - - - -
21/07:00pm 29.3 WNW 6 7 1006.7 - - - - - - - - -
21/06:30pm 29.5 WNW 6 7 1006.5 - - - - - - - - -
21/06:00pm 29.7 W 7 8 1006.2 - - - - - - - - -
21/05:30pm 30.3 WSW 6 8 1005.7 - - - - - - - - -
21/05:00pm 30.5 WSW 7 9 1005.5 - - - - - - - - -
21/04:30pm 30.3 W 6 8 1005.5 - - - - - - - - -
21/04:00pm 30.9 WSW 6 8 1005.5 - - - - - - - - -
21/03:30pm 31.1 WSW 7 9 1005.6 - - - - - - - - -
21/03:00pm 30.8 SW 7 11 1005.8 - - - - - - - - -
21/02:30pm 31.2 SW 7 11 1006.0 - - - - - - - - -
21/02:00pm 30.8 SW 9 12 1006.5 - - - - - - - - -
21/01:30pm 30.5 SW 8 13 1007.0 - - - - - - - - -
21/01:00pm 30.8 SW 9 12 1007.4 - - - - - - - - -
21/12:30pm 30.7 SW 10 13 1008.1 - - - - - - - - -
21/12:00pm 30.7 SW 11 13 1008.5 - - - - - - - - -
21/11:30am 30.3 SW 9 11 1008.8 - - - - - - - - -
21/11:00am 30.6 SW 9 12 1009.0 - - - - - - - - -
21/10:30am 30.3 WSW 8 10 1009.2 - - - - - - - - -
21/10:00am 30.7 SW 10 12 1009.2 - - - - - - - - -
21/09:30am 30.5 SSW 9 12 1009.5 - - - - - - - - -
21/09:00am 29.9 SW 8 10 1009.7 - - - - - - - - -
21/08:30am 29.9 SW 8 10 1009.5 - - - - - - - - -
21/08:00am 29.7 W 7 9 1009.3 - - - - - - - - -
21/07:30am 29.6 WNW 7 9 1009.0 - - - - - - - - -
21/07:00am 29.5 WNW 7 8 1008.8 - - - - - - - - -
21/06:30am 29.0 WNW 6 7 1008.6 - - - - - - - - -
21/06:00am 28.4 WNW 6 7 1008.4 - - - - - - - - -
21/05:30am 28.1 WNW 6 7 1008.1 - - - - - - - - -
21/05:00am 28.2 WNW 6 7 1007.7 - - - - - - - - -
21/04:30am 28.2 NW 6 6 1007.4 - - - - - - - - -
21/04:00am 28.1 NW 6 7 1007.4 - - - - - - - - -
21/03:30am 28.2 NW 6 6 1007.1 - - - - - - - - -
21/03:00am 28.2 NNW 5 6 1007.1 - - - - - - - - -
21/02:30am 28.3 N 3 4 1007.2 - - - - - - - - -
21/02:00am 28.3 NNE 3 4 1007.3 - - - - - - - - -
21/01:30am 28.4 N 4 5 1007.4 - - - - - - - - -
21/01:00am 28.5 N 4 5 1007.7 - - - - - - - - -
21/12:30am 28.5 NNE 6 7 1007.8 - - - - - - - - -
21/12:00am 28.5 NNE 6 7 1008.0 - - - - - - - - -
 
Date/Time
WST
Temp

°C
Wind Pressure Rain
since 9am
mm
Weather Cloud Vis
km
Sea
Height
m
Swell
Dir
 
Speed
knots
Gust
knots
hPa Trend Height
m
Period
s
Dir
20/11:30pm 28.7 NNE 6 7 1008.4 - - - - - - - - -
20/11:00pm 28.7 NNE 5 6 1008.8 - - - - - - - - -
20/10:30pm 28.4 CALM 0 0 1009.1 - - - - - - - - -
20/10:00pm 28.8 NNE 5 5 1009.1 - - - - - - - - -
20/09:30pm 28.4 CALM 0 0 1009.2 - - - - - - - - -
20/09:00pm 28.2 NNE 1 3 1009.0 - - - - - - - - -
20/08:30pm 28.1 CALM 0 0 1008.6 - - - - - - - - -
20/08:00pm 28.3 NNE 3 4 1008.1 - - - - - - - - -
20/07:30pm 28.2 NE 4 5 1007.8 - - - - - - - - -
20/07:00pm 28.2 CALM 0 0 1007.5 - - - - - - - - -
20/06:30pm 28.3 CALM 0 0 1006.8 - - - - - - - - -
20/06:00pm 28.5 NE 4 7 1006.2 - - - - - - - - -
20/05:30pm 28.6 S 5 6 1006.3 - - - - - - - - -
20/05:00pm 28.8 SSW 7 11 1006.2 - - - - - - - - -
20/04:30pm 29.1 SSW 8 12 1006.4 - - - - - - - - -
20/04:00pm 29.2 SSW 11 14 1006.7 - - - - - - - - -
20/03:30pm 29.5 S 13 17 1007.1 - - - - - - - - -
20/03:00pm 29.6 SSE 13 16 1007.4 - - - - - - - - -
20/02:30pm 29.1 SE 9 11 1007.5 - - - - - - - - -
20/02:00pm 28.2 SE 13 16 1007.8 - - - - - - - - -
20/01:30pm 27.8 SE 20 25 1008.5 - - - - - - - - -
20/01:00pm 27.3 SSE 17 29 1009.0 - - - - - - - - -
20/12:57pm 27.9 SSE 13 26 1009.0 - - - - - - - - -
20/12:30pm 31.1 SE 9 12 1008.7 - - - - - - - - -
20/12:00pm 30.3 SSW 9 11 1008.9 - - - - - - - - -
20/11:30am 30.6 SE 7 9 1009.4 - - - - - - - - -
20/11:00am 29.9 SSW 7 8 1009.5 - - - - - - - - -
20/10:30am 28.7 SSE 9 13 1010.0 - - - - - - - - -
20/10:00am 28.5 S 13 19 1010.6 - - - - - - - - -
20/09:30am 28.4 SE 17 23 1011.3 - - - - - - - - -
20/09:25am 28.5 SSE 13 23 1011.1 - - - - - - - - -
20/09:00am 30.2 S 9 11 1010.9 - - - - - - - - -
20/08:30am 30.3 S 11 13 1010.7 - - - - - - - - -
20/08:00am 30.5 SSW 9 11 1010.5 - - - - - - - - -
20/07:30am 30.3 SSW 9 12 1010.3 - - - - - - - - -
20/07:00am 29.9 SSW 10 13 1009.9 - - - - - - - - -
20/06:30am 29.7 SSW 7 9 1009.7 - - - - - - - - -
20/06:00am 29.4 SSW 8 10 1009.5 - - - - - - - - -
20/05:30am 29.2 SW 8 11 1008.9 - - - - - - - - -
20/05:00am 29.1 SW 9 11 1008.4 - - - - - - - - -
20/04:30am 29.1 SW 10 13 1007.9 - - - - - - - - -
20/04:00am 29.1 WSW 9 11 1007.9 - - - - - - - - -
20/03:30am 29.0 SW 10 13 1007.9 - - - - - - - - -
20/03:00am 29.1 SW 10 13 1008.1 - - - - - - - - -
20/02:30am 29.2 WSW 11 14 1007.9 - - - - - - - - -
20/02:00am 29.3 WSW 11 14 1008.2 - - - - - - - - -
20/01:30am 29.4 WSW 10 12 1008.4 - - - - - - - - -
20/01:00am 29.3 W 9 11 1008.7 - - - - - - - - -
20/12:30am 29.5 WSW 9 11 1009.2 - - - - - - - - -
20/12:00am 29.6 WSW 10 13 1009.7 - - - - - - - - -
 
Date/Time
WST
Temp

°C
Wind Pressure Rain
since 9am
mm
Weather Cloud Vis
km
Sea
Height
m
Swell
Dir
 
Speed
knots
Gust
knots
hPa Trend Height
m
Period
s
Dir
19/11:30pm 29.6 WSW 11 13 1010.2 - - - - - - - - -
19/11:00pm 29.7 WSW 12 14 1010.6 - - - - - - - - -
19/10:30pm 30.1 W 10 14 1010.5 - - - - - - - - -
19/10:00pm 29.9 W 9 12 1010.5 - - - - - - - - -
19/09:30pm 29.9 W 9 13 1010.2 - - - - - - - - -
19/09:00pm 29.9 W 9 11 1009.8 - - - - - - - - -
19/08:30pm 29.8 W 8 10 1009.6 - - - - - - - - -
19/08:00pm 29.8 W 7 8 1009.6 - - - - - - - - -
19/07:30pm 30.0 NW 7 9 1009.6 - - - - - - - - -
19/07:00pm 30.0 NW 6 7 1009.4 - - - - - - - - -

Other Formats:

Comma delimited format used in spreadsheet applications
http://www.bom.gov.au/fwo/IDW60701/IDW60701.94210.axf

JavaScript Object Notation format (JSON) in row-major order
http://www.bom.gov.au/fwo/IDW60701/IDW60701.94210.json